weather.gov     
National Weather Service

Regional Weather Roundup
NWS Homepage
This page is being discontinued on March 12, 2014.
The same data is available at this site. Please update your bookmarks.
Thank you, and we apologize for the inconvenience.
Please send an email to SR-SRH.Webmaster@noaa.gov with any concerns.


Current Version
Previous Version:    01  02  03  04  05  06  07  08  09  10  11  12  13  14  15  16  17  18  19  20  21  22  23  24  25  26  27  28  29  30  
   31  32  33  34  35  36  37  38  39  40  41  42  43  44  45  46  47  48  49  50  51  52  53  
[Printable]
536
ASUS43 KTOP 280908
RWRKS

WEATHER ROUNDUP FOR KANSAS
NATIONAL WEATHER SERVICE GOODLAND KS
400 AM CDT THU AUG 28 2014

NOTE:  "FAIR" INDICATES FEW OR NO CLOUDS BELOW 12,000 FEET WITH NO
SIGNIFICANT WEATHER AND/OR OBSTRUCTIONS TO VISIBILITY.

KSZ001>006-013>018-027>032-041>047-281000-
NORTHWEST KANSAS

CITY           SKY/WX    TMP DP  RH WIND       PRES   REMARKS
GOODLAND       PTCLDY    58  58 100 N7        30.03F
HAYS           CLEAR     70  63  78 E6        29.93F
HILL CITY      MOCLDY    67  66  97 N6        29.97S
RUSSELL        CLEAR     71  67  87 SE9       29.91F
$$

KSZ061>065-074>080-084>089-281000-
SOUTHWEST KANSAS

CITY           SKY/WX    TMP DP  RH WIND       PRES   REMARKS
DODGE CITY     CLEAR     71  63  75 S10       29.95F
ELKHART          N/A     65  61  87 SW6         N/A
GARDEN CITY    PTCLDY    67  63  87 S6        29.95S
GREAT BEND     MOCLDY    75  64  69 S12       29.93F
LIBERAL        MOCLDY    70  61  73 S14       29.97F
PRATT          CLOUDY    75  63  64 S16       29.97F
$$

KSZ066>073-081>083-090>101-281000-
SOUTHEAST KANSAS

CITY           SKY/WX    TMP DP  RH WIND       PRES   REMARKS
CHANUTE        CLEAR     73  68  84 SE6       29.97F
COFFEYVILLE    CLEAR     75  69  81 S8        29.97F
HUTCHINSON     CLOUDY    79  65  62 S10       29.95F
MEDICINE LODGE   N/A     76  68  76 S8        29.97R
NEWTON         CLOUDY    79  61  53 S7        29.99F
PARSONS        CLEAR     77  68  73 S5        29.99S
WICHITA INTL   CLOUDY    79  65  62 S9        29.95F
WICHITA JABRA  MOCLDY    78  65  63 S9        29.96S
WICHITA MCCONL CLOUDY    78  66  65 SE12      29.96F
WINFIELD       MOCLDY    77  66  68 S9        29.97F
$$

KSZ007>012-019>026-033>040-048>060-102>105-281000-
NORTHEAST KANSAS

CITY           SKY/WX    TMP DP  RH WIND       PRES   REMARKS
CONCORDIA      MOCLDY    73  71  93 SE6       29.92F
EMPORIA        CLOUDY    76  67  73 S13       29.96F
LAWRENCE       MOCLDY    76  73  91 SE6       29.96F
MANHATTAN      CLOUDY    80  68  66 S8        29.93F
MARYSVILLE     CLOUDY    73  72  94 SE9       29.94F
OLATHE IND     MOCLDY    75  73  93 SE7       29.98F
OLATHE EXE     MOCLDY    74  72  93 SE6       29.97F
SALINA         CLOUDY    80  66  62 S8        29.93F
TOPEKA BILLARD MOCLDY    77  74  90 SE6       29.95F
TOPEKA FORBES  MOCLDY    76  71  85 SE5       29.96F
$$




U.S. Dept. of Commerce
NOAA National Weather Service
1325 East West Highway
Silver Spring, MD 20910
E-mail: w-nws.webmaster@noaa.gov
Page last modified: May 16, 2007
NATIONAL WEATHER SERVICE: for Safety, for Work, for Fun - FOR LIFE